When you browse on this site, cookies collect data to enhance your experience and personalize the content and advertising you see.
Visit our Privacy Policy to learn more. By continuing to use the site, you agree to this use of cookies and data.
  • în România
  • Lista ţărilor
  • Pe 7 zile
  • Temperatura apei
  • Hartă satelitară
  • Meteo pe hartă
  • Widget-uri
  • user-avatar
    Intrare

    Meteo pe oră la Babadag

    Astăzi, 27 Martie, Miercuri

    Timp Temperatura Precipitaţii Vânt Presiune Umiditate
    00:00 +8°C° 0 mm 1 m/s 758 mmHg 70%
    01:00 +8°C° 0 mm 1 m/s 758 mmHg 70%
    02:00 +7°C° 0 mm 2 m/s 758 mmHg 70%
    03:00 +6°C° 0 mm 2 m/s 758 mmHg 70%
    04:00 +6°C° 0 mm 2 m/s 758 mmHg 70%
    05:00 +6°C° 0 mm 2 m/s 758 mmHg 70%
    06:00 +5°C° 0 mm 4 m/s 759 mmHg 62%
    07:00 +6°C° 0 mm 5 m/s 759 mmHg 53%
    08:00 +6°C° 0 mm 7 m/s 759 mmHg 45%
    09:00 +8°C° 0 mm 7 m/s 760 mmHg 44%
    10:00 +8°C° 0 mm 7 m/s 760 mmHg 42%
    11:00 +9°C° 0 mm 7 m/s 760 mmHg 41%
    12:00 +9°C° 0 mm 7 m/s 761 mmHg 38%
    13:00 +9°C° 0 mm 6 m/s 761 mmHg 36%
    14:00 +9°C° 0 mm 6 m/s 761 mmHg 33%
    15:00 +9°C° 0 mm 6 m/s 762 mmHg 32%
    16:00 +9°C° 0 mm 7 m/s 762 mmHg 31%
    17:00 +9°C° 0 mm 7 m/s 762 mmHg 30%
    18:00 +8°C° 0 mm 6 m/s 763 mmHg 35%
    19:00 +6°C° 0 mm 5 m/s 763 mmHg 41%
    20:00 +5°C° 0 mm 4 m/s 764 mmHg 46%
    21:00 +5°C° 0 mm 4 m/s 764 mmHg 48%
    22:00 +4°C° 0 mm 4 m/s 765 mmHg 50%
    23:00 +3°C° 0 mm 4 m/s 765 mmHg 52%

    Mâine, 28 Martie, Joi

    Timp Temperatura Precipitaţii Vânt Presiune Umiditate
    00:00 +3°C° 0 mm 4 m/s 765 mmHg 52%
    01:00 +3°C° 0 mm 4 m/s 765 mmHg 52%
    02:00 +1°C° 0 mm 4 m/s 766 mmHg 52%
    03:00 +1°C° 0 mm 4 m/s 766 mmHg 53%
    04:00 +1°C° 0 mm 3 m/s 766 mmHg 54%
    05:00 +1°C° 0 mm 3 m/s 766 mmHg 55%
    06:00 +1°C° 0 mm 4 m/s 766 mmHg 52%
    07:00 +1°C° 0 mm 5 m/s 766 mmHg 49%
    08:00 +2°C° 0 mm 6 m/s 767 mmHg 46%
    09:00 +3°C° 0 mm 6 m/s 767 mmHg 41%
    10:00 +4°C° 0 mm 6 m/s 767 mmHg 37%
    11:00 +5°C° 0 mm 6 m/s 767 mmHg 32%
    12:00 +7°C° 0 mm 6 m/s 767 mmHg 31%
    13:00 +7°C° 0 mm 6 m/s 767 mmHg 29%
    14:00 +8°C° 0 mm 6 m/s 766 mmHg 27%
    15:00 +8°C° 0 mm 6 m/s 766 mmHg 27%
    16:00 +7°C° 0 mm 6 m/s 766 mmHg 27%
    17:00 +7°C° 0 mm 6 m/s 766 mmHg 27%
    18:00 +6°C° 0 mm 5 m/s 766 mmHg 30%
    19:00 +5°C° 0 mm 4 m/s 767 mmHg 33%
    20:00 +4°C° 0 mm 3 m/s 767 mmHg 36%
    21:00 +4°C° 0 mm 3 m/s 767 mmHg 40%
    22:00 +3°C° 0 mm 3 m/s 768 mmHg 43%
    23:00 +3°C° 0 mm 3 m/s 768 mmHg 47%

    Poimâine, 29 Martie, Vineri

    Timp Temperatura Precipitaţii Vânt Presiune Umiditate
    00:00 +2°C° 0 mm 3 m/s 768 mmHg 50%
    01:00 +1°C° 0 mm 4 m/s 768 mmHg 53%
    02:00 +1°C° 0 mm 4 m/s 768 mmHg 56%
    03:00 0°C° 0 mm 4 m/s 768 mmHg 59%
    04:00 0°C° 0 mm 4 m/s 768 mmHg 62%
    05:00 -1°C° 0 mm 4 m/s 768 mmHg 65%
    06:00 0°C° 0 mm 4 m/s 769 mmHg 61%
    07:00 +1°C° 0 mm 4 m/s 769 mmHg 57%
    08:00 +2°C° 0 mm 5 m/s 769 mmHg 53%
    09:00 +3°C° 0 mm 5 m/s 769 mmHg 46%
    10:00 +6°C° 0 mm 5 m/s 769 mmHg 38%
    11:00 +7°C° 0 mm 5 m/s 769 mmHg 31%
    12:00 +8°C° 0 mm 4 m/s 769 mmHg 29%
    13:00 +8°C° 0 mm 4 m/s 768 mmHg 26%
    14:00 +10°C° 0 mm 4 m/s 768 mmHg 24%
    15:00 +10°C° 0 mm 4 m/s 767 mmHg 25%
    16:00 +10°C° 0 mm 4 m/s 767 mmHg 26%
    17:00 +8°C° 0 mm 4 m/s 766 mmHg 27%
    18:00 +8°C° 0 mm 3 m/s 767 mmHg 33%
    19:00 +7°C° 0 mm 2 m/s 767 mmHg 38%
    20:00 +6°C° 0 mm 2 m/s 767 mmHg 44%
    21:00 +6°C° 0 mm 1 m/s 767 mmHg 47%
    22:00 +6°C° 0 mm 1 m/s 767 mmHg 49%
    23:00 +5°C° 0 mm 1 m/s 767 mmHg 52%

    30 Martie, Sâmbătă

    Timp Temperatura Precipitaţii Vânt Presiune Umiditate
    00:00 +5°C° 0 mm 1 m/s 767 mmHg 52%
    01:00 +5°C° 0 mm 1 m/s 767 mmHg 52%
    02:00 +5°C° 0 mm 1 m/s 767 mmHg 52%
    03:00 +3°C° 0 mm 2 m/s 766 mmHg 52%
    04:00 +3°C° 0 mm 2 m/s 766 mmHg 52%
    05:00 +3°C° 0 mm 2 m/s 766 mmHg 53%
    06:00 +4°C° 0 mm 2 m/s 766 mmHg 50%
    07:00 +6°C° 0 mm 2 m/s 766 mmHg 48%
    08:00 +7°C° 0 mm 2 m/s 766 mmHg 46%
    09:00 +9°C° 0 mm 3 m/s 766 mmHg 44%
    10:00 +10°C° 0 mm 3 m/s 766 mmHg 42%
    11:00 +12°C° 0 mm 3 m/s 765 mmHg 40%
    12:00 +13°C° 0 mm 3 m/s 765 mmHg 38%
    13:00 +14°C° 0 mm 3 m/s 764 mmHg 37%
    14:00 +16°C° 0 mm 3 m/s 764 mmHg 35%
    15:00 +14°C° 0 mm 3 m/s 763 mmHg 37%
    16:00 +14°C° 0 mm 3 m/s 763 mmHg 38%
    17:00 +14°C° 0 mm 3 m/s 762 mmHg 40%
    18:00 +13°C° 0 mm 2 m/s 762 mmHg 45%
    19:00 +12°C° 0 mm 2 m/s 762 mmHg 50%
    20:00 +9°C° 0 mm 2 m/s 763 mmHg 55%
    21:00 +10°C° 0 mm 1 m/s 762 mmHg 56%
    22:00 +10°C° 0 mm 1 m/s 762 mmHg 57%
    23:00 +9°C° 0 mm 1 m/s 762 mmHg 57%

    31 Martie, Duminică

    Timp Temperatura Precipitaţii Vânt Presiune Umiditate
    00:00 +10°C° 0 mm 1 m/s 762 mmHg 61%
    01:00 +9°C° 0 mm 2 m/s 761 mmHg 64%
    02:00 +9°C° 0 mm 2 m/s 761 mmHg 67%
    03:00 +8°C° 0 mm 2 m/s 761 mmHg 72%
    04:00 +8°C° 0 mm 2 m/s 760 mmHg 76%
    05:00 +8°C° 0 mm 2 m/s 760 mmHg 81%
    06:00 +9°C° 0 mm 2 m/s 760 mmHg 78%
    07:00 +10°C° 0 mm 3 m/s 760 mmHg 75%
    08:00 +11°C° 0 mm 3 m/s 760 mmHg 72%
    09:00 +13°C° 0 mm 3 m/s 760 mmHg 65%
    10:00 +14°C° 0 mm 3 m/s 759 mmHg 58%
    11:00 +17°C° 0 mm 3 m/s 759 mmHg 51%
    12:00 +18°C° 0 mm 3 m/s 759 mmHg 47%
    13:00 +18°C° 0 mm 3 m/s 758 mmHg 44%
    14:00 +19°C° 0 mm 4 m/s 758 mmHg 41%
    15:00 +18°C° 0 mm 4 m/s 757 mmHg 43%
    16:00 +18°C° 0 mm 4 m/s 757 mmHg 45%
    17:00 +17°C° 0 mm 4 m/s 756 mmHg 47%
    18:00 +14°C° 0 mm 3 m/s 756 mmHg 54%
    19:00 +14°C° 0 mm 2 m/s 756 mmHg 61%
    20:00 +12°C° 0 mm 1 m/s 757 mmHg 68%
    21:00 +12°C° 0 mm 1 m/s 756 mmHg 69%
    22:00 +12°C° 0 mm 1 m/s 756 mmHg 70%
    23:00 +10°C° 0 mm 0 m/s 756 mmHg 70%

    1 Aprilie, Luni

    Timp Temperatura Precipitaţii Vânt Presiune Umiditate
    00:00 +11°C° 0 mm 1 m/s 755 mmHg 69%
    01:00 +11°C° 0 mm 1 m/s 755 mmHg 68%
    02:00 +11°C° 0 mm 1 m/s 755 mmHg 67%
    03:00 +10°C° 0 mm 2 m/s 754 mmHg 67%
    04:00 +10°C° 0 mm 2 m/s 754 mmHg 67%
    05:00 +10°C° 0 mm 2 m/s 754 mmHg 67%
    06:00 +10°C° 0 mm 2 m/s 754 mmHg 65%
    07:00 +11°C° 0 mm 3 m/s 754 mmHg 63%
    08:00 +11°C° 0 mm 3 m/s 754 mmHg 61%
    09:00 +13°C° 0 mm 3 m/s 754 mmHg 55%
    10:00 +14°C° 0 mm 4 m/s 754 mmHg 50%
    11:00 +15°C° 0 mm 4 m/s 754 mmHg 44%
    12:00 +17°C° 0 mm 4 m/s 754 mmHg 41%
    13:00 +18°C° 0 mm 4 m/s 753 mmHg 39%
    14:00 +18°C° 0 mm 4 m/s 753 mmHg 36%
    15:00 +18°C° 0 mm 3 m/s 753 mmHg 37%
    16:00 +18°C° 0 mm 3 m/s 752 mmHg 39%
    17:00 +17°C° 0 mm 3 m/s 752 mmHg 40%
    18:00 +16°C° 0 mm 2 m/s 752 mmHg 45%
    19:00 +15°C° 0 mm 2 m/s 752 mmHg 49%
    20:00 +14°C° 0 mm 2 m/s 753 mmHg 54%
    21:00 +13°C° 0 mm 2 m/s 753 mmHg 55%
    22:00 +13°C° 0 mm 2 m/s 753 mmHg 55%
    23:00 +13°C° 0 mm 2 m/s 753 mmHg 56%
    Arată mai mult